This is the latest recevied weather packets stored in our database for station/object SQ5RTW-1. If no packets are shown the sender has not sent any weather packets the latest 10 day(s).
| Time | Temp. | Humidity | Pressure | Rain* | Wind** | Luminosity | Snow |
|---|---|---|---|---|---|---|---|
| 1777507084 | 1.67° C | 63% | 1032.7 hPa | - | - | - | - |
| 1777501678 | 2.22° C | 64% | 1032.6 hPa | - | - | - | - |
| 1777500777 | 2.78° C | 61% | 1032.4 hPa | - | - | - | - |
| 1777499877 | 3.33° C | 58% | 1032.5 hPa | - | - | - | - |
| 1777498976 | 3.33° C | 58% | 1032.4 hPa | - | - | - | - |
| 1777496273 | 3.33° C | 63% | 1032.2 hPa | - | - | - | - |
| 1777494471 | 5° C | 59% | 1032.3 hPa | - | - | - | - |
| 1777493571 | 5.56° C | 57% | 1032.2 hPa | - | - | - | - |
| 1777492670 | 5° C | 62% | 1032.1 hPa | - | - | - | - |
| 1777490868 | 4.44° C | 62% | 1031.9 hPa | - | - | - | - |
| 1777489967 | 6.11° C | 59% | 1031.7 hPa | - | - | - | - |
| 1777489949 | 5° C | 59% | 1031.8 hPa | - | - | - | - |
| 1777488147 | 5.56° C | 54% | 1031.4 hPa | - | - | - | - |
| 1777487247 | 9.44° C | 53% | 1031.4 hPa | - | - | - | - |
| 1777487222 | 6.67° C | 53% | 1031.4 hPa | - | - | - | - |
| 1777486321 | 7.78° C | 47% | 1031.3 hPa | - | - | - | - |
| 1777485420 | 8.33° C | 45% | 1031.1 hPa | - | - | - | - |
| 1777483618 | 8.89° C | 41% | 1031 hPa | - | - | - | - |
| 1777482717 | 10° C | 39% | 1030.9 hPa | - | - | - | - |
| 1777480015 | 18.33° C | 25% | 1031 hPa | - | - | - | - |
| 1777476411 | 16.67° C | 32% | 1031.4 hPa | - | - | - | - |
| 1777475510 | 11.11° C | 38% | 1031 hPa | - | - | - | - |
| 1777474609 | 12.22° C | 35% | 1031 hPa | - | - | - | - |
| 1777469204 | 14.44° C | 31% | 1031.1 hPa | - | - | - | - |
| 1777468302 | 13.89° C | 35% | 1031 hPa | - | - | - | - |
* Rain since midnight (hover to see other rain measurements)
** Current wind speed in m/s (hover to see current wind gust speed)